Regional Weather Roundup
Issued by NWS Wilmington, NC

Home | Current Version | Previous Version | Text Only | Print | Product List | Glossary On
Versions: 1 2 3 4 5 6 7 8 9 10 11 12 13 14 15 16 17 18 19 20 21 22 23 24 25 26 27 28 29 30 31 32 33 34 35 36 37 38 39 40 41 42 43 44 45 46 47 48 49 50
000
ASUS42 KILM 011410
RWRILM
RWRILM
REGIONAL HOURLY WEATHER ROUNDUP
NATIONAL WEATHER SERVICE WILMINGTON NC
1000 AM EDT MON SEP 01 2014

NOTE: "FAIR" INDICATES FEW OR NO CLOUDS BELOW 12,000 FEET WITH NO
SIGNIFICANT WEATHER AND/OR OBSTRUCTIONS TO VISIBILITY.

...............WFO WILMINGTON COUNTY WARNING AREA...............

......COASTAL NC AND SC COUNTIES......

CITY           SKY/WX    TMP DP  RH WIND       PRES   REMARKS
WILMINGTON     MOSUNNY   83  76  79 W8        30.12F HX  91
SOUTHPORT      MOSUNNY   85  73  69 NW8       30.12F HX  91
N MYRTLE BEACH MOSUNNY   85  75  72 W5        30.12F HX  93
MYRTLE BEACH   NOT AVBL

......INLAND NC AND SC COUNTIES.......

CITY           SKY/WX    TMP DP  RH WIND       PRES   REMARKS
LUMBERTON      MOSUNNY   83  75  77 VRB3      30.11F HX  90
ELIZABETHTOWN  MOSUNNY   83  74  75 CALM      30.12F
WHITEVILLE     SUNNY     82  75  79 SW5       30.11F
FLORENCE       MOSUNNY   83  73  72 CALM      30.12S
DARLINGTON     MOSUNNY   82  72  69 NW6       30.13S

....................REST OF NORTH CAROLINA......................

.........EASTERN NC.........

CITY           SKY/WX    TMP DP  RH WIND       PRES   REMARKS
CAPE HATTERAS  MOSUNNY   83  77  82 SW9       30.13R HX  92
JACKSONVILLE   SUNNY     84  73  70 W8        30.12F HX  91
MOREHEAD CITY  MOSUNNY   85  76  74 W9        30.12S HX  94
KENANSVILLE    SUNNY     82  73  75 W3        30.12F
NEW BERN       SUNNY     86  76  71 SW7       30.13F HX  96
ELIZABETH CITY MOSUNNY   82  76  81 W9        30.10S

.........CENTRAL NC.........

CITY           SKY/WX    TMP DP  RH WIND       PRES   REMARKS
RALEIGH DURHAM MOSUNNY   81  73  76 SW6       30.11F
ROCKY MOUNT    PTSUNNY   81  74  79 SW6       30.11S
ROANOKE RAPIDS NOT AVBL
FAYETTEVILLE   MOSUNNY   84  74  71 SW6       30.11S HX  91
HOFFMAN        MOSUNNY   82  72  71 NW5       30.13S

.........WESTERN NC.........

CITY           SKY/WX    TMP DP  RH WIND       PRES   REMARKS
CHARLOTTE      MOSUNNY   83  71  67 CALM      30.14S
GREENSBORO     PTSUNNY   80  72  76 SW5       30.12S
HICKORY        NOT AVBL
BOONE          NOT AVBL
ASHEVILLE      NOT AVBL

.....................REST OF SOUTH CAROLINA.....................

.........EASTERN SC.........

CITY           SKY/WX    TMP DP  RH WIND       PRES   REMARKS
CHARLESTON     MOSUNNY   85  73  67 W3        30.12F HX  91
BEAUFORT MCAS  SUNNY     85  72  65 N5        30.13S HX  91
HILTON HEAD    NOT AVBL

.........CENTRAL SC.........

CITY           SKY/WX    TMP DP  RH WIND       PRES   REMARKS
COLUMBIA       MOSUNNY   81  74  79 S5        30.12S
ORANGEBURG     SUNNY     84  70  62 W3        30.13S
SUMTER SHAW    SUNNY     80  75  84 CALM      30.12S

.........WESTERN SC.........

CITY           SKY/WX    TMP DP  RH WIND       PRES   REMARKS
GREENVILLE     NOT AVBL
ROCK HILL      SUNNY     82  72  71 CALM      30.14S
ANDERSON       PTSUNNY   80  72  76 CALM      30.14S
CLEMSON        NOT AVBL
GREENWOOD      MOSUNNY   85  71  63 VRB3      30.15S HX  90


...................COASTAL AND OFFSHORE REPORTS..................

................LOCAL PIERS AND NC RESERVE................


STATION/POSITION TIME  SKY/WX   TEMP    WIND        PRES    VSBY
                                AIR SEA DIR/SP/G
                 (UTC)          (F)     (DEG/KT/KT) (MB)    (MI)
JOHNY MRCER PIER 1400            83 83  290/  7/ 10 1019.6F
NC RESRV MASNBRO 1300            82     260/  2     1020.0S
OCEAN CREST PIER 1400            83 84  250/  7/  8 1019.2F
SPRINGMAID  PIER 1400            83 83  280/  5/  7 1020.0S


................COASTAL AND OFFSHORE BUOYS................


STATION/POSITION TIME  SKY/WX   TEMP    WIND        PRES    VSBY
                                AIR SEA DIR/SP/G
                 (UTC)          (F)     (DEG/KT/KT) (MB)    (MI)
DIMNDSHOAL 41025 1400            81     240/ 12/ 16 1020.0F
WVE H/P(F/S)=  3/ 9 WND WVE H/P(F/S)=  2/ 4 SWL H/P/D(F/S/D)=  2/120/ 9

CAPE LOOKOUT     1300            82     210/  7/  9 1020.0S
ONSLOW BAY 41036 1400            81 83  250/  6/  8 1020.4F
WVE H/P(F/S)=  3/ 4 WND WVE H/P(F/S)=  2/ 4 SWL H/P/D(F/S/D)=  2/180/ 4

5 WRITEBCH 41038 1300            78 82  280/  8/  8   N/A
MASONBORO  41110 1400               83                N/A
WVE H/P(F/S)=  3/ 4 WND WVE H/P(F/S)=  3/ 4

WILM HARBR 41108 1400               83                N/A
WVE H/P(F/S)=  3/ 9 WND WVE H/P(F/S)=  3/ 9

27WRITEBCH 41037 NOT AVBL
FRYING PAN 41013 NOT AVBL
SUNST NRSH 41024 1300            82     290/  6/  8 1020.1R
CAPRS NRSH 41029 1300            84     320/  6/  6   N/A
EDISTO     41004 1400            83 83  280/  2/  2 1019.6S
WVE H/P(F/S)=  2/ 9 WND WVE H/P(F/S)=  2/ 4 SWL H/P/D(F/S/D)=  2/ 9



..........OFFSHORE BUOYS BEYOND 100 NM OFFSHORE...........
.....IN A TRIANGLE---HAT TO BERMUDA TO BAHAMAS TO HAT.....


STATION/POSITION TIME  SKY/WX   TEMP    WIND        PRES    VSBY
                                AIR SEA DIR/SP/G
                 (UTC)          (F)     (DEG/KT/KT) (MB)    (MI)
150E HAT   41001 NOT AVBL
W BERMUDA  41048 1258            78 80  350/  4/  6 1021.7
WVE H/P(F/S)=  4/ 8 WND WVE H/P(F/S)=  2/ 4 SWL H/P/D(F/S/D)=  5/ 60/ 8

ATLANTIC S 41049 1339            84 85   80/  6/ 10 1021.3R
WVE H/P(F/S)=  5/ 8 WND WVE H/P(F/S)=  2/ 3 SWL H/P/D(F/S/D)=  5/ 70/ 8

E BAHAMAS  41046 1346            83 84   90/ 12/ 14 1019.5R
WVE H/P(F/S)=  4/ 8 WND WVE H/P(F/S)=  2/ 5 SWL H/P/D(F/S/D)=  3/100/ 8

NE BAHAMAS 41047 1320            81 85   80/ 12/ 14 1021.3S
WVE H/P(F/S)=  4/ 9 WND WVE H/P(F/S)=  2/ 5 SWL H/P/D(F/S/D)=  3/120/ 9

120E CANVRL41010 1400            82 84   90/  6/  8 1020.5R
WVE H/P(F/S)=  2/ 9 WND WVE H/P(F/S)=  2/ 4 SWL H/P/D(F/S/D)=  2/ 90/ 9


END


USA.gov is the U.S. government's official web portal to all federal, state and local government web resources and services.